"Pseudo-MPEC" for CARD332

Created 2024 Sep 5 22:22:10 UT using Find_Orb

Click here for an explanation of pseudo-MPECs

 
 Astrometry: 
     CARD332*1C2024 09 05.29603723 51 06.854+31 45 41.47   ~9587x      VNEOCPG96
     CARD332 1C2024 09 05.30131223 51 08.658+31 41 02.83   ~9587 18.46GVNEOCPG96
     CARD332 1C2024 09 05.30658023 51 10.436+31 36 23.47   ~9587       VNEOCPG96
     CARD332 1C2024 09 05.31185823 51 12.143+31 31 42.46   ~9587 18.59GVNEOCPG96
     CARD332  C2024 09 05.34488123 51 15.402+31 02 16.62   ~9597 18.5 GVNEOCPH01
     CARD332 KC2024 09 05.34745823 51 22.777+31 00 49.90   ~958b 18.54GVNEOCPI52
     CARD332 KB2024 09 05.34782 23 50 57.346+30 57 05.26   ~958q 18.8 RZNEOCPH36
     CARD332 KC2024 09 05.34803723 51 22.936+31 00 20.30   ~958b 18.54GVNEOCPI52
     CARD332  C2024 09 05.34806123 51 16.380+30 59 33.05   ~9597 18.3 GVNEOCPH01
     CARD332 KC2024 09 05.34863023 51 23.116+30 59 49.99   ~958b 18.61GVNEOCPI52
     CARD332 KC2024 09 05.34921523 51 23.274+30 59 19.90   ~958b 18.37GVNEOCPI52
     CARD332 KB2024 09 05.35109 23 50 58.630+30 54 15.37   ~958q 18.7 RZNEOCPH36
     CARD332  C2024 09 05.36004023 51 20.021+30 49 20.69   ~9597 18.4 GVNEOCPH01
     CARD332  C2024 09 05.36532123 51 21.636+30 44 52.89   ~9597 18.4 GVNEOCPH01
     CARD332 KC2024 09 05.43980223 51 50.587+29 45 18.07   ~95Aq 19.03GVNEOCPI52
     CARD332 KC2024 09 05.44038423 51 50.792+29 44 50.89   ~95Aq 18.82GVNEOCPI52
     CARD332 KC2024 09 05.44097023 51 50.994+29 44 23.42   ~95Aq       VNEOCPI52
     CARD332 KC2024 09 05.44156723 51 51.210+29 43 55.06   ~95Aq 18.82GVNEOCPI52
     CARD332 KB2024 09 05.51719323 54 55.287+28 47 28.49   ~95DM 17.5 VZNEOCPQ06
     CARD332 KB2024 09 05.52313823 54 57.128+28 43 47.51   ~95DM 18.8 VZNEOCPQ06
     CARD332 KB2024 09 05.52923623 54 58.834+28 40 01.82   ~95DM 18.9 VZNEOCPQ06
     CARD332 KC2024 09 05.68979523 55 20.96 +27 06 49.6    ~95Hq 19.1 GVNEOCP900
     CARD332 KC2024 09 05.70170423 55 21.97 +27 00 16.9    ~95Hq 18.7 GVNEOCP900
     CARD332 KC2024 09 05.71361323 55 23.06 +26 53 47.5    ~95Hq 19.0 GVNEOCP900
     CARD332 KC2024 09 05.80854 23 57 30.24 +25 59 48.9    ~95Jq 19.2 VqNEOCPL04
     CARD332 KC2024 09 05.81206323 57 31.47 +25 56 21.0    ~95Kb 18.5 GVNEOCPG34
     CARD332 KC2024 09 05.81404823 57 32.10 +25 55 29.7    ~95Kb 18.9 GVNEOCPG34
     CARD332 KC2024 09 05.81462 23 57 31.80 +25 57 10.0    ~95Jq 19.2 VqNEOCPL04
     CARD332 1C2024 09 05.85641 23 57 44.21 +25 37 21.0    ~95L7 20.3 VXNEOCP033
     CARD332 1C2024 09 05.85672 23 57 44.28 +25 37 13.0    ~95L7 20.7 VXNEOCP033
     CARD332 1C2024 09 05.85703 23 57 44.36 +25 37 05.4    ~95L7 20.0 VXNEOCP033
     CARD332 1C2024 09 05.85747 23 57 44.45 +25 36 54.3    ~95L7 20.0 VXNEOCP033
     CARD332 KB2024 09 05.89414 23 57 42.95 +25 24 05.3    ~95Lq       XNEOCPM45
     CARD332 KB2024 09 05.89669 23 57 43.14 +25 23 02.5    ~95Lq 19.3 GXNEOCPM45
     CARD332 KB2024 09 05.89914 23 57 43.34 +25 22 02.5    ~95Lq 18.2 GXNEOCPM45

Station data:
(033) Karl Schwarzschild Observatory, Tautenburg  (N50.980139 E11.711240)
   Germany.  Observer B. Stecklum. 1.34-m f/3 Schmidt + CCD.
(900) Moriyama  (N35.049753 E135.989940)  Japan.  Observer Y. Ikari. 0.26-m
   f/7.0 reflector + CCD.
(G34) Oberfrauendorf  (N50.860002 E13.701500)  Germany.  Observer T. Felber.
   0.35-m f/6.3 Schmidt-Cassegrain + CCD.
(G96) Mt. Lemmon Survey  (N32.442729 W110.788720)  US/Arizona.  Observer E.
   J. Christensen. 1.5-m reflector + 10K CCD.
(H01) Magdalena Ridge Observatory, Socorro  (N33.984833 W107.189333)  US/New
   Mexico.  Observers W. H. Ryan, E. V. Ryan. Measurer W. H. Ryan. 2.4-m
   f/8.9 reflector + CCD.
(H36) Sandlot Observatory, Scranton  (N38.797718 W95.706550)  US/Kansas.
   Observer G. Hug. 0.56-m reflector + CCD.
(I52) Steward Observatory, Mt. Lemmon Station  (N32.442570 W110.788920)
   US/Arizona.  Observers T. A. Pruyne, B. M. Africano, E. J. Christensen, G.
   A. Farneth, D. C. Fuls, A. R. Gibbs, A. D. Grauer, H. Gröller, J. A.
   Johnson, R. A. Kowalski, S. M. Larson, G. J. Leonard, D. Rankin, R. L.
   Seaman, F. C. Shelly, K. W. Wierzchoś. 1.0-m prime focus + CCD.
(L04) ROASTERR-1 Observatory, Cluj-Napoca  (N46.820952 E23.596400)  Romania.
   Observer L. Hudin. 0.3-m f/5 reflector + CCD0.1-m f/9 refractor + CCD.
(M45) Starhopper Observatory, Sfantu Gheorghe  (N45.865582 E25.768900)
   Romania.  Observer F. Ursache. 0.41-m f/7.5 reflector + CMO.
(Q06) Tarui Observatory, Tarui  (N35.394791 E136.495470)  Japan.

Orbital elements:  CARD332
   Perihelion 2024 Jul 26.59602 +/- 0.00196 TT = 14:18:15 (JD 2460518.09602)
Epoch 2024 Sep  6.0 TT = JDT 2460559.5   Earth MOID: 0.0018   Ma: 0.0358
M  26.18194395 +/- 0.0053           (J2000 ecliptic)             AutoNEOCP
n   0.63235323 +/- 9.88e-5          Peri.  315.66206 +/- 0.0010
a   1.34430005 +/- 0.00014          Node   339.27625 +/- 0.0015
e   0.3055051 +/- 8.42e-5           Incl.    2.27108 +/- 0.0009
P   1.559/569.291d         H 28.58  G  0.15   U  6.5
q 0.93360941 +/- 1.61e-5    Q 1.75499070 +/- 0.000296
34 of 35 observations 2024 Sept. 5 (14.3 hr); mean residual 0".30
Residuals in arcseconds: 
240905 G96( .49-  4.5-)   240905 H01  .00   .00     240905 L04  .26-  .39-    
240905 G96  .41-  .50-    240905 H01  .07+  .05-    240905 G34  .19-  .56+    
240905 G96  .00   .95+    240905 I52  .01+  .47-    240905 G34  .07-  .68+    
240905 G96  .05+  .12-    240905 I52  .03+  .32-    240905 L04  .60+  1.0-    
240905 H01  .06-  .05-    240905 I52  .01-  .28-    240905 033  .06-  .28+    
240905 I52  .01-  .08-    240905 I52  .07+  .64-    240905 033  .06-  .02+    
240905 H36  .13-  .04+    240905 Q06  .19+  .17-    240905 033  .08+  .15+    
240905 I52  .09-  .05-    240905 Q06  .45+  .26+    240905 033  .04-  .03+    
240905 H01  .04+  .08+    240905 Q06  .18-  .50+    240905 M45  .04+  .40-    
240905 I52  .05+  .03-    240905 900  .08-  .39+    240905 M45  .23-  .24-    
240905 I52  .05-  .22-    240905 900  .12+  .01+    240905 M45  .16-  .18+    
240905 H36  .19+  .14+    240905 900  .10+  .03-    

Ephemerides (geocentric):
Date (UTC) HH   RA             Dec           delta  r     elong  mag " sig PA
---- --------  ------------   ------------  ------ ------ -----  --- --------
2024 09 05 22  23 57 25.973   +25 21 44.39  .00772 1.0144 145.1 19.5 .119 130
2024 09 05 23  23 57 43.161   +25 04 37.33  .00789 1.0145 145.4 19.5 .114 125
2024 09 06 00  23 57 59.546   +24 48 13.28  .00806 1.0147 145.6 19.6 .109 120
2024 09 06 01  23 58 15.183   +24 32 29.65  .00823 1.0148 145.9 19.6 .104 113
2024 09 06 02  23 58 30.122   +24 17 24.01  .00840 1.0150 146.1 19.6 .100 106
2024 09 06 03  23 58 44.408   +24 02 54.14  .00857 1.0151 146.3 19.7 .098  98
2024 09 06 04  23 58 58.082   +23 48 57.99  .00874 1.0153 146.5 19.7 .097  90
2024 09 06 05  23 59 11.184   +23 35 33.64  .00891 1.0154 146.7 19.7 .099  81
2024 09 06 06  23 59 23.747   +23 22 39.33  .00908 1.0156 146.9 19.8 .102  73
2024 09 06 07  23 59 35.804   +23 10 13.42  .00925 1.0157 147.1 19.8 .108  65
2024 09 06 08  23 59 47.385   +22 58 14.39  .00942 1.0159 147.3 19.8 .115  58
2024 09 06 09  23 59 58.517   +22 46 40.81  .00959 1.0160 147.5 19.9 .123  52
2024 09 06 10  00 00 09.226   +22 35 31.37  .00976 1.0162 147.7 19.9 .133  46
2024 09 06 11  00 00 19.534   +22 24 44.83  .00994 1.0163 147.8 20.0 .144  41
2024 09 06 12  00 00 29.464   +22 14 20.04  .01011 1.0165 148.0 20.0 .156  37
2024 09 06 13  00 00 39.037   +22 04 15.93  .01028 1.0166 148.2 20.0 .168  34
2024 09 06 14  00 00 48.269   +21 54 31.48  .01045 1.0168 148.3 20.0 .181  31
2024 09 06 15  00 00 57.180   +21 45 05.76  .01062 1.0169 148.5 20.1 .194  28
2024 09 06 16  00 01 05.786   +21 35 57.89  .01079 1.0171 148.6 20.1 .207  26
2024 09 06 17  00 01 14.101   +21 27 07.02  .01097 1.0172 148.8 20.1 .221  24
2024 09 06 18  00 01 22.140   +21 18 32.38  .01114 1.0174 148.9 20.2 .234  22
2024 09 06 19  00 01 29.916   +21 10 13.25  .01131 1.0175 149.0 20.2 .248  21
2024 09 06 20  00 01 37.442   +21 02 08.92  .01148 1.0177 149.2 20.2 .262  19
2024 09 06 21  00 01 44.729   +20 54 18.74  .01165 1.0179 149.3 20.3 .276  18
2024 09 06 22  00 01 51.789   +20 46 42.11  .01182 1.0180 149.4 20.3 .289  17
2024 09 06 23  00 01 58.631   +20 39 18.45  .01200 1.0182 149.6 20.3 .303  16
2024 09 07 00  00 02 05.265   +20 32 07.21  .01217 1.0183 149.7 20.3 .317  15
2024 09 07 01  00 02 11.701   +20 25 07.87  .01234 1.0185 149.8 20.4 .330  14
2024 09 07 02  00 02 17.947   +20 18 19.94  .01251 1.0186 149.9 20.4 .344  13
2024 09 07 03  00 02 24.011   +20 11 42.97  .01269 1.0188 150.0 20.4 .357  12
2024 09 07 04  00 02 29.900   +20 05 16.51  .01286 1.0189 150.1 20.4 .371  12
2024 09 07 05  00 02 35.622   +19 59 00.16  .01303 1.0191 150.3 20.5 .384  11
2024 09 07 06  00 02 41.185   +19 52 53.51  .01320 1.0192 150.4 20.5 .397  11
2024 09 07 07  00 02 46.593   +19 46 56.19  .01338 1.0194 150.5 20.5 .410  10
2024 09 07 08  00 02 51.854   +19 41 07.86  .01355 1.0195 150.6 20.6 .422   9
2024 09 07 09  00 02 56.972   +19 35 28.16  .01372 1.0197 150.7 20.6 .435   9
2024 09 07 10  00 03 01.954   +19 29 56.79  .01389 1.0198 150.8 20.6 .448   9
2024 09 07 11  00 03 06.805   +19 24 33.43  .01407 1.0200 150.9 20.6 .460   8
2024 09 07 12  00 03 11.530   +19 19 17.80  .01424 1.0201 151.0 20.6 .472   8
2024 09 07 13  00 03 16.133   +19 14 09.62  .01441 1.0203 151.1 20.7 .484   7
2024 09 07 14  00 03 20.619   +19 09 08.63  .01459 1.0204 151.2 20.7 .496   7
2024 09 07 15  00 03 24.992   +19 04 14.57  .01476 1.0206 151.3 20.7 .508   7
2024 09 07 16  00 03 29.257   +18 59 27.20  .01493 1.0207 151.3 20.7 .520   6
2024 09 07 17  00 03 33.416   +18 54 46.30  .01510 1.0209 151.4 20.8 .531   6
2024 09 07 18  00 03 37.474   +18 50 11.65  .01528 1.0210 151.5 20.8 .543   6
2024 09 07 19  00 03 41.434   +18 45 43.04  .01545 1.0212 151.6 20.8 .554   6
2024 09 07 20  00 03 45.300   +18 41 20.26  .01562 1.0213 151.7 20.8 .565   5
2024 09 07 21  00 03 49.074   +18 37 03.13  .01580 1.0215 151.8 20.9 .576   5